Year,Month,Day,Hour,Minute,Value (Times are PST for temperature in C)
2013,07,09,00,00,16.10
2013,07,09,00,01,16.10
2013,07,09,00,02,16.00
2013,07,09,00,03,16.00
2013,07,09,00,04,15.90
2013,07,09,00,05,15.90
2013,07,09,00,06,15.90
2013,07,09,00,07,15.90
2013,07,09,00,08,15.80
2013,07,09,00,09,15.80
2013,07,09,00,10,15.80
2013,07,09,00,11,15.80
2013,07,09,00,12,15.80
2013,07,09,00,13,15.80
2013,07,09,00,14,15.80
2013,07,09,00,15,15.80
2013,07,09,00,16,15.80
2013,07,09,00,17,15.80
2013,07,09,00,18,15.70
2013,07,09,00,19,15.70
2013,07,09,00,20,15.70
2013,07,09,00,21,15.60
2013,07,09,00,22,15.60
2013,07,09,00,23,15.50
2013,07,09,00,24,15.50
2013,07,09,00,25,15.50
2013,07,09,00,26,15.40
2013,07,09,00,27,15.40
2013,07,09,00,28,15.30
2013,07,09,00,29,15.30
2013,07,09,00,30,15.30
2013,07,09,00,31,15.30
2013,07,09,00,32,15.20
2013,07,09,00,33,15.20
2013,07,09,00,34,15.20
2013,07,09,00,35,15.10
2013,07,09,00,36,15.10
2013,07,09,00,37,15.10
2013,07,09,00,38,15.10
2013,07,09,00,39,15.10
2013,07,09,00,40,15.00
2013,07,09,00,41,15.00
2013,07,09,00,42,15.00
2013,07,09,00,43,15.00
2013,07,09,00,44,14.90
2013,07,09,00,45,14.90
2013,07,09,00,46,14.90
2013,07,09,00,47,14.90
2013,07,09,00,48,14.80
2013,07,09,00,49,14.80
2013,07,09,00,50,14.80
2013,07,09,00,51,14.80
2013,07,09,00,52,14.80
2013,07,09,00,53,14.80
2013,07,09,00,54,14.70
2013,07,09,00,55,14.70
2013,07,09,00,56,14.70
2013,07,09,00,57,14.70
2013,07,09,00,58,14.70
2013,07,09,00,59,14.60
2013,07,09,01,00,14.60
2013,07,09,01,01,14.60
2013,07,09,01,02,14.60
2013,07,09,01,03,14.60
2013,07,09,01,04,14.50
2013,07,09,01,05,14.50
2013,07,09,01,06,14.50
2013,07,09,01,07,14.50
2013,07,09,01,08,14.40
2013,07,09,01,09,14.40
2013,07,09,01,10,14.40
2013,07,09,01,11,14.40
2013,07,09,01,12,14.40
2013,07,09,01,13,14.30
2013,07,09,01,14,14.30
2013,07,09,01,15,14.30
2013,07,09,01,16,14.30
2013,07,09,01,17,14.30
2013,07,09,01,18,14.30
2013,07,09,01,19,14.30
2013,07,09,01,20,14.20
2013,07,09,01,21,14.20
2013,07,09,01,22,14.20
2013,07,09,01,23,14.20
2013,07,09,01,24,14.20
2013,07,09,01,25,14.20
2013,07,09,01,26,14.20
2013,07,09,01,27,14.20
2013,07,09,01,28,14.20
2013,07,09,01,29,14.10
2013,07,09,01,30,14.10
2013,07,09,01,31,14.10
2013,07,09,01,32,14.10
2013,07,09,01,33,14.10
2013,07,09,01,34,14.10
2013,07,09,01,35,14.00
2013,07,09,01,36,14.00
2013,07,09,01,37,14.00
2013,07,09,01,38,14.00
2013,07,09,01,39,14.00
2013,07,09,01,40,13.90
2013,07,09,01,41,13.90
2013,07,09,01,42,13.90
2013,07,09,01,43,13.90
2013,07,09,01,44,13.90
2013,07,09,01,45,13.80
2013,07,09,01,46,13.80
2013,07,09,01,47,13.80
2013,07,09,01,48,13.80
2013,07,09,01,49,13.80
2013,07,09,01,50,13.80
2013,07,09,01,51,13.80
2013,07,09,01,52,13.70
2013,07,09,01,53,13.70
2013,07,09,01,54,13.70
2013,07,09,01,55,13.70
2013,07,09,01,56,13.70
2013,07,09,01,57,13.70
2013,07,09,01,58,13.60
2013,07,09,01,59,13.60
2013,07,09,02,00,13.60
2013,07,09,02,01,13.60
2013,07,09,02,02,13.60
2013,07,09,02,03,13.60
2013,07,09,02,04,13.60
2013,07,09,02,05,13.60
2013,07,09,02,06,13.50
2013,07,09,02,07,13.50
2013,07,09,02,08,13.50
2013,07,09,02,09,13.50
2013,07,09,02,10,13.50
2013,07,09,02,11,13.50
2013,07,09,02,12,13.40
2013,07,09,02,13,13.40
2013,07,09,02,14,13.40
2013,07,09,02,15,13.40
2013,07,09,02,16,13.40
2013,07,09,02,17,13.40
2013,07,09,02,18,13.40
2013,07,09,02,19,13.40
2013,07,09,02,20,13.40
2013,07,09,02,21,13.40
2013,07,09,02,22,13.40
2013,07,09,02,23,13.40
2013,07,09,02,24,13.40
2013,07,09,02,25,13.40
2013,07,09,02,26,13.30
2013,07,09,02,27,13.30
2013,07,09,02,28,13.30
2013,07,09,02,29,13.30
2013,07,09,02,30,13.30
2013,07,09,02,31,13.30
2013,07,09,02,32,13.30
2013,07,09,02,33,13.30
2013,07,09,02,34,13.20
2013,07,09,02,35,13.20
2013,07,09,02,36,13.20
2013,07,09,02,37,13.20
2013,07,09,02,38,13.20
2013,07,09,02,39,13.20
2013,07,09,02,40,13.10
2013,07,09,02,41,13.10
2013,07,09,02,42,13.10
2013,07,09,02,43,13.10
2013,07,09,02,44,13.10
2013,07,09,02,45,13.10
2013,07,09,02,46,13.10
2013,07,09,02,47,13.00
2013,07,09,02,48,13.00
2013,07,09,02,49,13.00
2013,07,09,02,50,13.00
2013,07,09,02,51,13.00
2013,07,09,02,52,13.00
2013,07,09,02,53,13.00
2013,07,09,02,54,12.90
2013,07,09,02,55,12.90
2013,07,09,02,56,12.90
2013,07,09,02,57,12.90
2013,07,09,02,58,12.90
2013,07,09,02,59,12.90
2013,07,09,03,00,12.90
2013,07,09,03,01,12.90
2013,07,09,03,02,12.90
2013,07,09,03,03,12.90
2013,07,09,03,04,12.80
2013,07,09,03,05,12.80
2013,07,09,03,06,12.80
2013,07,09,03,07,12.80
2013,07,09,03,08,12.80
2013,07,09,03,09,12.80
2013,07,09,03,10,12.80
2013,07,09,03,11,12.80
2013,07,09,03,12,12.80
2013,07,09,03,13,12.80
2013,07,09,03,14,12.80
2013,07,09,03,15,12.80
2013,07,09,03,16,12.70
2013,07,09,03,17,12.70
2013,07,09,03,18,12.70
2013,07,09,03,19,12.70
2013,07,09,03,20,12.70
2013,07,09,03,21,12.70
2013,07,09,03,22,12.70
2013,07,09,03,23,12.70
2013,07,09,03,24,12.70
2013,07,09,03,25,12.70
2013,07,09,03,26,12.70
2013,07,09,03,27,12.60
2013,07,09,03,28,12.60
2013,07,09,03,29,12.60
2013,07,09,03,30,12.60
2013,07,09,03,31,12.60
2013,07,09,03,32,12.60
2013,07,09,03,33,12.60
2013,07,09,03,34,12.60
2013,07,09,03,35,12.50
2013,07,09,03,36,12.50
2013,07,09,03,37,12.50
2013,07,09,03,38,12.50
2013,07,09,03,39,12.50
2013,07,09,03,40,12.40
2013,07,09,03,41,12.40
2013,07,09,03,42,12.40
2013,07,09,03,43,12.40
2013,07,09,03,44,12.40
2013,07,09,03,45,12.40
2013,07,09,03,46,12.40
2013,07,09,03,47,12.40
2013,07,09,03,48,12.40
2013,07,09,03,49,12.40
2013,07,09,03,50,12.30
2013,07,09,03,51,12.30
2013,07,09,03,52,12.30
2013,07,09,03,53,12.30
2013,07,09,03,54,12.30
2013,07,09,03,55,12.30
2013,07,09,03,56,12.30
2013,07,09,03,57,12.30
2013,07,09,03,58,12.30
2013,07,09,03,59,12.30
2013,07,09,04,00,12.30
2013,07,09,04,01,12.30
2013,07,09,04,02,12.30
2013,07,09,04,03,12.30
2013,07,09,04,04,12.30
2013,07,09,04,05,12.30
2013,07,09,04,06,12.30
2013,07,09,04,07,12.30
2013,07,09,04,08,12.30
2013,07,09,04,09,12.30
2013,07,09,04,10,12.20
2013,07,09,04,11,12.20
2013,07,09,04,12,12.20
2013,07,09,04,13,12.20
2013,07,09,04,14,12.20
2013,07,09,04,15,12.20
2013,07,09,04,16,12.20
2013,07,09,04,17,12.20
2013,07,09,04,18,12.20
2013,07,09,04,19,12.10
2013,07,09,04,20,12.10
2013,07,09,04,21,12.10
2013,07,09,04,22,12.10
2013,07,09,04,23,12.10
2013,07,09,04,24,12.10
2013,07,09,04,25,12.10
2013,07,09,04,26,12.10
2013,07,09,04,27,12.10
2013,07,09,04,28,12.00
2013,07,09,04,29,12.00
2013,07,09,04,30,12.00
2013,07,09,04,31,12.00
2013,07,09,04,32,12.00
2013,07,09,04,33,12.00
2013,07,09,04,34,12.00
2013,07,09,04,35,12.00
2013,07,09,04,36,12.00
2013,07,09,04,37,12.00
2013,07,09,04,38,11.90
2013,07,09,04,39,11.90
2013,07,09,04,40,11.90
2013,07,09,04,41,11.90
2013,07,09,04,42,11.90
2013,07,09,04,43,11.90
2013,07,09,04,44,11.90
2013,07,09,04,45,11.90
2013,07,09,04,46,11.90
2013,07,09,04,47,11.90
2013,07,09,04,48,11.90
2013,07,09,04,49,11.90
2013,07,09,04,50,11.90
2013,07,09,04,51,11.90
2013,07,09,04,52,11.90
2013,07,09,04,53,11.90
2013,07,09,04,54,11.90
2013,07,09,04,55,11.80
2013,07,09,04,56,11.80
2013,07,09,04,57,11.80
2013,07,09,04,58,11.80
2013,07,09,04,59,11.80
2013,07,09,05,00,11.80
2013,07,09,05,01,11.80
2013,07,09,05,02,11.80
2013,07,09,05,03,11.80
2013,07,09,05,04,11.80
2013,07,09,05,05,11.80
2013,07,09,05,06,11.80
2013,07,09,05,07,11.80
2013,07,09,05,08,11.80
2013,07,09,05,09,11.80
2013,07,09,05,10,11.80
2013,07,09,05,11,11.80
2013,07,09,05,12,11.70
2013,07,09,05,13,11.70
2013,07,09,05,14,11.70
2013,07,09,05,15,11.70
2013,07,09,05,16,11.70
2013,07,09,05,17,11.70
2013,07,09,05,18,11.70
2013,07,09,05,19,11.70
2013,07,09,05,20,11.70
2013,07,09,05,21,11.70
2013,07,09,05,22,11.70
2013,07,09,05,23,11.70
2013,07,09,05,24,11.70
2013,07,09,05,25,11.70
2013,07,09,05,26,11.70
2013,07,09,05,27,11.70
2013,07,09,05,28,11.70
2013,07,09,05,29,11.70
2013,07,09,05,30,11.70
2013,07,09,05,31,11.70
2013,07,09,05,32,11.70
2013,07,09,05,33,11.70
2013,07,09,05,34,11.70
2013,07,09,05,35,11.70
2013,07,09,05,36,11.70
2013,07,09,05,37,11.70
2013,07,09,05,38,11.70
2013,07,09,05,39,11.70
2013,07,09,05,40,11.70
2013,07,09,05,41,11.60
2013,07,09,05,42,11.60
2013,07,09,05,43,11.60
2013,07,09,05,44,11.60
2013,07,09,05,45,11.60
2013,07,09,05,46,11.60
2013,07,09,05,47,11.60
2013,07,09,05,48,11.60
2013,07,09,05,49,11.60
2013,07,09,05,50,11.60
2013,07,09,05,51,11.60
2013,07,09,05,52,11.60
2013,07,09,05,53,11.60
2013,07,09,05,54,11.60
2013,07,09,05,55,11.60
2013,07,09,05,56,11.60
2013,07,09,05,57,11.60
2013,07,09,05,58,11.60
2013,07,09,05,59,11.60
2013,07,09,06,00,11.50
2013,07,09,06,01,11.50
2013,07,09,06,02,11.50
2013,07,09,06,03,11.50
2013,07,09,06,04,11.50
2013,07,09,06,05,11.50
2013,07,09,06,06,11.50
2013,07,09,06,07,11.50
2013,07,09,06,08,11.50
2013,07,09,06,09,11.50
2013,07,09,06,10,11.50
2013,07,09,06,11,11.50
2013,07,09,06,12,11.50
2013,07,09,06,13,11.50
2013,07,09,06,14,11.50
2013,07,09,06,15,11.50
2013,07,09,06,16,11.50
2013,07,09,06,17,11.50
2013,07,09,06,18,11.50
2013,07,09,06,19,11.50
2013,07,09,06,20,11.50
2013,07,09,06,21,11.50
2013,07,09,06,22,11.50
2013,07,09,06,23,11.50
2013,07,09,06,24,11.50
2013,07,09,06,25,11.50
2013,07,09,06,26,11.50
2013,07,09,06,27,11.50
2013,07,09,06,28,11.50
2013,07,09,06,29,11.50
2013,07,09,06,30,11.50
2013,07,09,06,31,11.50
2013,07,09,06,32,11.50
2013,07,09,06,33,11.50
2013,07,09,06,34,11.50
2013,07,09,06,35,11.50
2013,07,09,06,36,11.50
2013,07,09,06,37,11.50
2013,07,09,06,38,11.60
2013,07,09,06,39,11.60
2013,07,09,06,40,11.60
2013,07,09,06,41,11.60
2013,07,09,06,42,11.60
2013,07,09,06,43,11.60
2013,07,09,06,44,11.60
2013,07,09,06,45,11.60
2013,07,09,06,46,11.60
2013,07,09,06,47,11.60
2013,07,09,06,48,11.70
2013,07,09,06,49,11.70
2013,07,09,06,50,11.70
2013,07,09,06,51,11.70
2013,07,09,06,52,11.80
2013,07,09,06,53,11.80
2013,07,09,06,54,11.90
2013,07,09,06,55,11.90
2013,07,09,06,56,12.00
2013,07,09,06,57,12.00
2013,07,09,06,58,12.10
2013,07,09,06,59,12.20
2013,07,09,07,00,12.30
2013,07,09,07,01,12.30
2013,07,09,07,02,12.40
2013,07,09,07,03,12.50
2013,07,09,07,04,12.60
2013,07,09,07,05,12.70
2013,07,09,07,06,12.70
2013,07,09,07,07,12.80
2013,07,09,07,08,12.80
2013,07,09,07,09,12.80
2013,07,09,07,10,12.80
2013,07,09,07,11,12.80
2013,07,09,07,12,12.90
2013,07,09,07,13,12.90
2013,07,09,07,14,12.90
2013,07,09,07,15,12.90
2013,07,09,07,16,13.00
2013,07,09,07,17,13.10
2013,07,09,07,18,13.10
2013,07,09,07,19,13.10
2013,07,09,07,20,13.10
2013,07,09,07,21,13.20
2013,07,09,07,22,13.20
2013,07,09,07,23,13.30
2013,07,09,07,24,13.40
2013,07,09,07,25,13.50
2013,07,09,07,26,13.60
2013,07,09,07,27,13.70
2013,07,09,07,28,13.80
2013,07,09,07,29,13.90
2013,07,09,07,30,14.00
2013,07,09,07,31,14.10
2013,07,09,07,32,14.20
2013,07,09,07,33,14.30
2013,07,09,07,34,14.40
2013,07,09,07,35,14.50
2013,07,09,07,36,14.60
2013,07,09,07,37,14.70
2013,07,09,07,38,14.70
2013,07,09,07,39,14.80
2013,07,09,07,40,14.90
2013,07,09,07,41,14.90
2013,07,09,07,42,15.00
2013,07,09,07,43,15.00
2013,07,09,07,44,15.10
2013,07,09,07,45,15.20
2013,07,09,07,46,15.20
2013,07,09,07,47,15.20
2013,07,09,07,48,15.30
2013,07,09,07,49,15.30
2013,07,09,07,50,15.40
2013,07,09,07,51,15.40
2013,07,09,07,52,15.50
2013,07,09,07,53,15.60
2013,07,09,07,54,15.70
2013,07,09,07,55,15.80
2013,07,09,07,56,15.80
2013,07,09,07,57,15.90
2013,07,09,07,58,16.00
2013,07,09,07,59,16.10
2013,07,09,08,00,16.10
2013,07,09,08,01,16.20
2013,07,09,08,02,16.20
2013,07,09,08,03,16.30
2013,07,09,08,04,16.30
2013,07,09,08,05,16.40
2013,07,09,08,06,16.50
2013,07,09,08,07,16.50
2013,07,09,08,08,16.60
2013,07,09,08,09,16.70
2013,07,09,08,10,16.70
2013,07,09,08,11,16.80
2013,07,09,08,12,16.90
2013,07,09,08,13,17.00
2013,07,09,08,14,17.10
2013,07,09,08,15,17.10
2013,07,09,08,16,17.20
2013,07,09,08,17,17.20
2013,07,09,08,18,17.20
2013,07,09,08,19,17.20
2013,07,09,08,20,17.20
2013,07,09,08,21,17.20
2013,07,09,08,22,17.20
2013,07,09,08,23,17.20
2013,07,09,08,24,17.10
2013,07,09,08,25,17.10
2013,07,09,08,26,17.20
2013,07,09,08,27,17.10
2013,07,09,08,28,17.10
2013,07,09,08,29,17.10
2013,07,09,08,30,17.20
2013,07,09,08,31,17.20
2013,07,09,08,32,17.30
2013,07,09,08,33,17.40
2013,07,09,08,34,17.50
2013,07,09,08,35,17.60
2013,07,09,08,36,17.60
2013,07,09,08,37,17.70
2013,07,09,08,38,17.80
2013,07,09,08,39,17.80
2013,07,09,08,40,17.80
2013,07,09,08,41,17.80
2013,07,09,08,42,17.80
2013,07,09,08,43,17.80
2013,07,09,08,44,17.80
2013,07,09,08,45,17.80
2013,07,09,08,46,17.80
2013,07,09,08,47,17.80
2013,07,09,08,48,17.90
2013,07,09,08,49,18.00
2013,07,09,08,50,18.00
2013,07,09,08,51,18.10
2013,07,09,08,52,18.20
2013,07,09,08,53,18.20
2013,07,09,08,54,18.30
2013,07,09,08,55,18.30
2013,07,09,08,56,18.40
2013,07,09,08,57,18.40
2013,07,09,08,58,18.50
2013,07,09,08,59,18.50
2013,07,09,09,00,18.50
2013,07,09,09,01,18.40
2013,07,09,09,02,18.40
2013,07,09,09,03,18.30
2013,07,09,09,04,18.30
2013,07,09,09,05,18.30
2013,07,09,09,06,18.30
2013,07,09,09,07,18.30
2013,07,09,09,08,18.30
2013,07,09,09,09,18.30
2013,07,09,09,10,18.40
2013,07,09,09,11,18.40
2013,07,09,09,12,18.40
2013,07,09,09,13,18.40
2013,07,09,09,14,18.40
2013,07,09,09,15,18.40
2013,07,09,09,16,18.40
2013,07,09,09,17,18.40
2013,07,09,09,18,18.40
2013,07,09,09,19,18.40
2013,07,09,09,20,18.40
2013,07,09,09,21,18.40
2013,07,09,09,22,18.40
2013,07,09,09,23,18.50
2013,07,09,09,24,18.50
2013,07,09,09,25,18.50
2013,07,09,09,26,18.60
2013,07,09,09,27,18.60
2013,07,09,09,28,18.70
2013,07,09,09,29,18.80
2013,07,09,09,30,18.80
2013,07,09,09,31,18.80
2013,07,09,09,32,19.00
2013,07,09,09,33,19.10
2013,07,09,09,34,19.20
2013,07,09,09,35,19.40
2013,07,09,09,36,19.50
2013,07,09,09,37,19.70
2013,07,09,09,38,19.80
2013,07,09,09,39,19.90
2013,07,09,09,40,20.00
2013,07,09,09,41,20.00
2013,07,09,09,42,20.10
2013,07,09,09,43,20.10
2013,07,09,09,44,20.10
2013,07,09,09,45,20.00
2013,07,09,09,46,20.00
2013,07,09,09,47,19.90
2013,07,09,09,48,19.90
2013,07,09,09,49,19.90
2013,07,09,09,50,19.90
2013,07,09,09,51,19.90
2013,07,09,09,52,19.90
2013,07,09,09,53,19.90
2013,07,09,09,54,19.90
2013,07,09,09,55,19.90
2013,07,09,09,56,19.90
2013,07,09,09,57,19.90
2013,07,09,09,58,19.90
2013,07,09,09,59,20.00
2013,07,09,10,00,20.10
2013,07,09,10,01,20.20
2013,07,09,10,02,20.30
2013,07,09,10,03,20.50
2013,07,09,10,04,20.60
2013,07,09,10,05,20.80
2013,07,09,10,06,20.90
2013,07,09,10,07,21.00
2013,07,09,10,08,21.10
2013,07,09,10,09,21.20
2013,07,09,10,10,21.30
2013,07,09,10,11,21.30
2013,07,09,10,12,21.30
2013,07,09,10,13,21.30
2013,07,09,10,14,21.30
2013,07,09,10,15,21.20
2013,07,09,10,16,21.10
2013,07,09,10,17,21.00
2013,07,09,10,18,20.90
2013,07,09,10,19,20.90
2013,07,09,10,20,20.90
2013,07,09,10,21,20.80
2013,07,09,10,22,20.90
2013,07,09,10,23,20.90
2013,07,09,10,24,21.00
2013,07,09,10,25,21.00
2013,07,09,10,26,21.10
2013,07,09,10,27,21.10
2013,07,09,10,28,21.10
2013,07,09,10,29,21.10
2013,07,09,10,30,21.20
2013,07,09,10,31,21.30
2013,07,09,10,32,21.30
2013,07,09,10,33,21.30
2013,07,09,10,34,21.30
2013,07,09,10,35,21.30
2013,07,09,10,36,21.30
2013,07,09,10,37,21.40
2013,07,09,10,38,21.40
2013,07,09,10,39,21.50
2013,07,09,10,40,21.60
2013,07,09,10,41,21.70
2013,07,09,10,42,21.70
2013,07,09,10,43,21.80
2013,07,09,10,44,21.90
2013,07,09,10,45,21.90
2013,07,09,10,46,21.90
2013,07,09,10,47,21.90
2013,07,09,10,48,21.90
2013,07,09,10,49,21.90
2013,07,09,10,50,21.90
2013,07,09,10,51,22.00
2013,07,09,10,52,22.10
2013,07,09,10,53,22.20
2013,07,09,10,54,22.30
2013,07,09,10,55,22.30
2013,07,09,10,56,22.40
2013,07,09,10,57,22.50
2013,07,09,10,58,22.50
2013,07,09,10,59,22.60
2013,07,09,11,00,22.60
2013,07,09,11,01,22.60
2013,07,09,11,02,22.70
2013,07,09,11,03,22.70
2013,07,09,11,04,22.80
2013,07,09,11,05,22.80
2013,07,09,11,06,22.80
2013,07,09,11,07,22.80
2013,07,09,11,08,22.90
2013,07,09,11,09,22.90
2013,07,09,11,10,22.90
2013,07,09,11,11,22.90
2013,07,09,11,12,22.90
2013,07,09,11,13,23.00
2013,07,09,11,14,23.10
2013,07,09,11,15,23.20
2013,07,09,11,16,23.30
2013,07,09,11,17,23.30
2013,07,09,11,18,23.40
2013,07,09,11,19,23.50
2013,07,09,11,20,23.50
2013,07,09,11,21,23.60
2013,07,09,11,22,23.80
2013,07,09,11,23,23.80
2013,07,09,11,24,23.90
2013,07,09,11,25,23.90
2013,07,09,11,26,23.90
2013,07,09,11,27,23.90
2013,07,09,11,28,23.90
2013,07,09,11,29,23.90
2013,07,09,11,30,23.90
2013,07,09,11,31,23.90
2013,07,09,11,32,23.80
2013,07,09,11,33,23.90
2013,07,09,11,34,23.90
2013,07,09,11,35,24.00
2013,07,09,11,36,24.10
2013,07,09,11,37,24.20
2013,07,09,11,38,24.30
2013,07,09,11,39,24.30
2013,07,09,11,40,24.30
2013,07,09,11,41,24.30
2013,07,09,11,42,24.30
2013,07,09,11,43,24.30
2013,07,09,11,44,24.30
2013,07,09,11,45,24.30
2013,07,09,11,46,24.20
2013,07,09,11,47,24.20
2013,07,09,11,48,24.20
2013,07,09,11,49,24.20
2013,07,09,11,50,24.20
2013,07,09,11,51,24.20
2013,07,09,11,52,24.20
2013,07,09,11,53,24.20
2013,07,09,11,54,24.20
2013,07,09,11,55,24.10
2013,07,09,11,56,24.10
2013,07,09,11,57,24.10
2013,07,09,11,58,24.10
2013,07,09,11,59,24.10
2013,07,09,12,00,24.20
2013,07,09,12,01,24.20
2013,07,09,12,02,24.20
2013,07,09,12,03,24.20
2013,07,09,12,04,24.20
2013,07,09,12,05,24.30
2013,07,09,12,06,24.40
2013,07,09,12,07,24.40
2013,07,09,12,08,24.40
2013,07,09,12,09,24.40
2013,07,09,12,10,24.40
2013,07,09,12,11,24.40
2013,07,09,12,12,24.40
2013,07,09,12,13,24.40
2013,07,09,12,14,24.40
2013,07,09,12,15,24.40
2013,07,09,12,16,24.40
2013,07,09,12,17,24.40
2013,07,09,12,18,24.40
2013,07,09,12,19,24.40
2013,07,09,12,20,24.50
2013,07,09,12,21,24.50
2013,07,09,12,22,24.50
2013,07,09,12,23,24.50
2013,07,09,12,24,24.60
2013,07,09,12,25,24.60
2013,07,09,12,26,24.70
2013,07,09,12,27,24.70
2013,07,09,12,28,24.80
2013,07,09,12,29,24.80
2013,07,09,12,30,24.90
2013,07,09,12,31,24.90
2013,07,09,12,32,25.00
2013,07,09,12,33,25.10
2013,07,09,12,34,25.20
2013,07,09,12,35,25.30
2013,07,09,12,36,25.40
2013,07,09,12,37,25.40
2013,07,09,12,38,25.40
2013,07,09,12,39,25.50
2013,07,09,12,40,25.50
2013,07,09,12,41,25.60
2013,07,09,12,42,25.70
2013,07,09,12,43,25.70
2013,07,09,12,44,25.70
2013,07,09,12,45,25.70
2013,07,09,12,46,25.70
2013,07,09,12,47,25.70
2013,07,09,12,48,25.70
2013,07,09,12,49,25.80
2013,07,09,12,50,25.80
2013,07,09,12,51,25.80
2013,07,09,12,52,25.90
2013,07,09,12,53,25.90
2013,07,09,12,54,25.90
2013,07,09,12,55,26.00
2013,07,09,12,56,26.10
2013,07,09,12,57,26.20
2013,07,09,12,58,26.20
2013,07,09,12,59,26.20
2013,07,09,13,00,26.30
2013,07,09,13,01,26.40
2013,07,09,13,02,26.50
2013,07,09,13,03,26.60
2013,07,09,13,04,26.70
2013,07,09,13,05,26.80
2013,07,09,13,06,26.90
2013,07,09,13,07,26.90
2013,07,09,13,08,26.90
2013,07,09,13,09,26.90
2013,07,09,13,10,26.90
2013,07,09,13,11,26.90
2013,07,09,13,12,26.90
2013,07,09,13,13,26.80
2013,07,09,13,14,26.80
2013,07,09,13,15,26.70
2013,07,09,13,16,26.70
2013,07,09,13,17,26.80
2013,07,09,13,18,26.80
2013,07,09,13,19,26.80
2013,07,09,13,20,26.90
2013,07,09,13,21,26.90
2013,07,09,13,22,27.00
2013,07,09,13,23,27.00
2013,07,09,13,24,27.00
2013,07,09,13,25,27.00
2013,07,09,13,26,27.00
2013,07,09,13,27,26.90
2013,07,09,13,28,26.80
2013,07,09,13,29,26.80
2013,07,09,13,30,26.80
2013,07,09,13,31,26.70
2013,07,09,13,32,26.70
2013,07,09,13,33,26.60
2013,07,09,13,34,26.50
2013,07,09,13,35,26.50
2013,07,09,13,36,26.40
2013,07,09,13,37,26.40
2013,07,09,13,38,26.30
2013,07,09,13,39,26.30
2013,07,09,13,40,26.20
2013,07,09,13,41,26.20
2013,07,09,13,42,26.10
2013,07,09,13,43,26.10
2013,07,09,13,44,26.00
2013,07,09,13,45,25.90
2013,07,09,13,46,25.90
2013,07,09,13,47,25.90
2013,07,09,13,48,25.90
2013,07,09,13,49,25.90
2013,07,09,13,50,25.90
2013,07,09,13,51,25.90
2013,07,09,13,52,25.90
2013,07,09,13,53,25.80
2013,07,09,13,54,25.80
2013,07,09,13,55,25.80
2013,07,09,13,56,25.80
2013,07,09,13,57,25.80
2013,07,09,13,58,25.90
2013,07,09,13,59,25.90
2013,07,09,14,00,25.90
2013,07,09,14,01,25.90
2013,07,09,14,02,25.90
2013,07,09,14,03,25.90
2013,07,09,14,04,25.90
2013,07,09,14,05,25.90
2013,07,09,14,06,25.90
2013,07,09,14,07,25.80
2013,07,09,14,08,25.80
2013,07,09,14,09,25.80
2013,07,09,14,10,25.80
2013,07,09,14,11,25.80
2013,07,09,14,12,25.80
2013,07,09,14,13,25.80
2013,07,09,14,14,25.80
2013,07,09,14,15,25.80
2013,07,09,14,16,25.80
2013,07,09,14,17,25.80
2013,07,09,14,18,25.80
2013,07,09,14,19,25.90
2013,07,09,14,20,25.90
2013,07,09,14,21,25.90
2013,07,09,14,22,25.90
2013,07,09,14,23,25.90
2013,07,09,14,24,25.90
2013,07,09,14,25,25.90
2013,07,09,14,26,25.90
2013,07,09,14,27,25.90
2013,07,09,14,28,25.90
2013,07,09,14,29,25.90
2013,07,09,14,30,25.90
2013,07,09,14,31,25.90
2013,07,09,14,32,25.90
2013,07,09,14,33,25.90
2013,07,09,14,34,25.90
2013,07,09,14,35,25.90
2013,07,09,14,36,25.90
2013,07,09,14,37,25.90
2013,07,09,14,38,25.90
2013,07,09,14,39,25.90
2013,07,09,14,40,25.90
2013,07,09,14,41,25.90
2013,07,09,14,42,25.90
2013,07,09,14,43,25.90
2013,07,09,14,44,25.90
2013,07,09,14,45,25.90
2013,07,09,14,46,25.80
2013,07,09,14,47,25.80
2013,07,09,14,48,25.80
2013,07,09,14,49,25.80
2013,07,09,14,50,25.80
2013,07,09,14,51,25.80
2013,07,09,14,52,25.70
2013,07,09,14,53,25.70
2013,07,09,14,54,25.70
2013,07,09,14,55,25.70
2013,07,09,14,56,25.70
2013,07,09,14,57,25.70
2013,07,09,14,58,25.70
2013,07,09,14,59,25.70
2013,07,09,15,00,25.70
2013,07,09,15,01,25.70
2013,07,09,15,02,25.70
2013,07,09,15,03,25.80
2013,07,09,15,04,25.80
2013,07,09,15,05,25.80
2013,07,09,15,06,25.80
2013,07,09,15,07,25.80
2013,07,09,15,08,25.80
2013,07,09,15,09,25.80
2013,07,09,15,10,25.90
2013,07,09,15,11,25.90
2013,07,09,15,12,26.00
2013,07,09,15,13,26.00
2013,07,09,15,14,26.10
2013,07,09,15,15,26.10
2013,07,09,15,16,26.20
2013,07,09,15,17,26.20
2013,07,09,15,18,26.20
2013,07,09,15,19,26.30
2013,07,09,15,20,26.30
2013,07,09,15,21,26.40
2013,07,09,15,22,26.40
2013,07,09,15,23,26.40
2013,07,09,15,24,26.40
2013,07,09,15,25,26.30
2013,07,09,15,26,26.30
2013,07,09,15,27,26.20
2013,07,09,15,28,26.20
2013,07,09,15,29,26.10
2013,07,09,15,30,26.10
2013,07,09,15,31,26.10
2013,07,09,15,32,26.10
2013,07,09,15,33,26.10
2013,07,09,15,34,26.10
2013,07,09,15,35,26.10
2013,07,09,15,36,26.10
2013,07,09,15,37,26.10
2013,07,09,15,38,26.10
2013,07,09,15,39,26.10
2013,07,09,15,40,26.10
2013,07,09,15,41,26.10
2013,07,09,15,42,26.00
2013,07,09,15,43,26.00
2013,07,09,15,44,26.00
2013,07,09,15,45,25.90
2013,07,09,15,46,25.90
2013,07,09,15,47,25.90
2013,07,09,15,48,25.80
2013,07,09,15,49,25.80
2013,07,09,15,50,25.80
2013,07,09,15,51,25.80
2013,07,09,15,52,25.80
2013,07,09,15,53,25.70
2013,07,09,15,54,25.70
2013,07,09,15,55,25.70
2013,07,09,15,56,25.70
2013,07,09,15,57,25.70
2013,07,09,15,58,25.70
2013,07,09,15,59,25.70
2013,07,09,16,00,25.70
2013,07,09,16,01,25.70
2013,07,09,16,02,25.70
2013,07,09,16,03,25.80
2013,07,09,16,04,25.80
2013,07,09,16,05,25.80
2013,07,09,16,06,25.80
2013,07,09,16,07,25.80
2013,07,09,16,08,25.80
2013,07,09,16,09,25.80
2013,07,09,16,10,25.80
2013,07,09,16,11,25.80
2013,07,09,16,12,25.80
2013,07,09,16,13,25.80
2013,07,09,16,14,25.80
2013,07,09,16,15,25.80
2013,07,09,16,16,25.70
2013,07,09,16,17,25.70
2013,07,09,16,18,25.70
2013,07,09,16,19,25.70
2013,07,09,16,20,25.70
2013,07,09,16,21,25.70
2013,07,09,16,22,25.70
2013,07,09,16,23,25.70
2013,07,09,16,24,25.60
2013,07,09,16,25,25.60
2013,07,09,16,26,25.60
2013,07,09,16,27,25.60
2013,07,09,16,28,25.60
2013,07,09,16,29,25.50
2013,07,09,16,30,25.50
2013,07,09,16,31,25.50
2013,07,09,16,32,25.50
2013,07,09,16,33,25.50
2013,07,09,16,34,25.50
2013,07,09,16,35,25.50
2013,07,09,16,36,25.50
2013,07,09,16,37,25.40
2013,07,09,16,38,25.40
2013,07,09,16,39,25.40
2013,07,09,16,40,25.40
2013,07,09,16,41,25.30
2013,07,09,16,42,25.30
2013,07,09,16,43,25.30
2013,07,09,16,44,25.30
2013,07,09,16,45,25.30
2013,07,09,16,46,25.30
2013,07,09,16,47,25.20
2013,07,09,16,48,25.20
2013,07,09,16,49,25.20
2013,07,09,16,50,25.20
2013,07,09,16,51,25.20
2013,07,09,16,52,25.20
2013,07,09,16,53,25.20
2013,07,09,16,54,25.20
2013,07,09,16,55,25.20
2013,07,09,16,56,25.20
2013,07,09,16,57,25.20
2013,07,09,16,58,25.20
2013,07,09,16,59,25.20
2013,07,09,17,00,25.20
2013,07,09,17,01,25.20
2013,07,09,17,02,25.20
2013,07,09,17,03,25.20
2013,07,09,17,04,25.20
2013,07,09,17,05,25.10
2013,07,09,17,06,25.10
2013,07,09,17,07,25.10
2013,07,09,17,08,25.10
2013,07,09,17,09,25.10
2013,07,09,17,10,25.10
2013,07,09,17,11,25.10
2013,07,09,17,12,25.10
2013,07,09,17,13,25.20
2013,07,09,17,14,25.20
2013,07,09,17,15,25.30
2013,07,09,17,16,25.30
2013,07,09,17,17,25.30
2013,07,09,17,18,25.40
2013,07,09,17,19,25.40